Weather History for Wooster, OH

Change the Weather History Date:

Thursday, February 14, 2013

  Actual Average Record
Temperature  
Mean Temperature 31 °F -  
Max Temperature 37 °F 35 °F 51 °F (2001)
Min Temperature 25 °F 21 °F 3 °F (2007)
Degree Days  
Heating Degree Days 34    
Moisture  
Dew Point 29 °F    
Average Humidity 88    
Maximum Humidity 93    
Minimum Humidity 70    
Precipitation  
Precipitation 0.00 in - - ()
Sea Level Pressure  
Sea Level Pressure 29.87 in    
Wind  
Wind Speed 9 mph (SW)    
Max Wind Speed 21 mph    
Max Gust Speed 31 mph    
Visibility 6 miles    
Events Rain , Snow    
Averages and records for this station are not official NWS values.
T = Trace of Precipitation, MM = Missing Value Source: NWS Daily Summary

Daily Weather History Graph

Daily Weather History Graph

Search for Another Location

Airport:

Trip Planner

Search our weather history database for the weather conditions in past years. The results will help you decide how hot, cold, wet, or windy it might be!

Date:

Astronomy

Feb. 14, 2013 Rise Set
Actual Time 7:22 AM EST 6:01 PM EST
Civil Twilight 6:54 AM EST 6:29 PM EST
Nautical Twilight 6:22 AM EST 7:01 PM EST
Astronomical Twilight 5:50 AM EST 7:33 PM EST
Moon 9:21 AM EST (2/14) 11:05 PM EST (2/14)
Length of Visible Light 11h 34m
Length of Day
10h 38m
Waxing Crescent, 21% of the Moon is Illuminated
Feb 14
Waxing Crescent
Feb 17
First Quarter
Feb 25
Full
Mar 4
Last Quarter
Mar 11
New

Hourly Weather History & Observations

Time (EST) Temp. Windchill Dew Point Humidity Pressure Visibility Wind Dir Wind Speed Gust Speed Precip Events Conditions
12:56 AM 25.0 °F - 21.9 °F 88% 29.89 in 4.0 mi Calm Calm - N/A   Clear
1:56 AM 25.0 °F 20.7 °F 21.9 °F 88% 29.89 in 5.0 mi SSW 3.5 mph - N/A   Clear
2:56 AM 26.1 °F 19.4 °F 23.0 °F 88% 29.88 in 5.0 mi SSW 5.8 mph - N/A   Partly Cloudy
3:56 AM 26.1 °F 18.4 °F 23.0 °F 88% 29.88 in 5.0 mi SSW 6.9 mph - N/A   Partly Cloudy
4:56 AM 27.0 °F 17.3 °F 24.1 °F 89% 29.88 in 4.0 mi SSW 10.4 mph - N/A   Overcast
5:56 AM 27.0 °F 16.1 °F 24.1 °F 89% 29.88 in 4.0 mi SSW 12.7 mph - N/A   Overcast
6:56 AM 28.0 °F 18.6 °F 25.0 °F 88% 29.89 in 4.0 mi SSW 10.4 mph - N/A   Mostly Cloudy
7:07 AM 28.4 °F 18.5 °F 24.8 °F 86% 29.85 in 4.0 mi SSW 11.5 mph - N/A   Scattered Clouds
7:43 AM 28.4 °F 18.0 °F 26.6 °F 93% 29.85 in 3.0 mi SSW 12.7 mph - N/A   Mostly Cloudy
7:56 AM 28.0 °F 18.1 °F 26.1 °F 92% 29.90 in 3.0 mi SSW 11.5 mph - N/A   Overcast
8:56 AM 30.0 °F 20.5 °F 28.0 °F 92% 29.91 in 3.0 mi SSW 11.5 mph - N/A   Overcast
10:24 AM 32.0 °F 23.0 °F 30.2 °F 93% 29.85 in 2.5 mi SSW 11.5 mph - N/A   Overcast
10:32 AM 32.0 °F 23.0 °F 30.2 °F 93% 29.85 in 3.0 mi SSW 11.5 mph - N/A   Overcast
10:56 AM 33.1 °F 23.9 °F 30.0 °F 89% 29.90 in 3.0 mi SSW 12.7 mph - N/A   Overcast
11:56 AM 33.1 °F 24.9 °F 30.0 °F 89% 29.90 in 4.0 mi South 10.4 mph - N/A   Overcast
12:56 PM 33.1 °F 23.9 °F 30.9 °F 92% 29.88 in 4.0 mi SSW 12.7 mph - N/A   Overcast
1:23 PM 33.8 °F 24.8 °F 30.2 °F 87% 29.83 in 2.0 mi South 12.7 mph - 0.00 in Snow Light Snow
1:40 PM 33.8 °F 24.3 °F 32.0 °F 93% 29.82 in 3.0 mi South 13.8 mph 20.7 mph 0.00 in   Overcast
1:56 PM 34.0 °F 24.6 °F 32.0 °F 92% 29.85 in 4.0 mi South 13.8 mph - 0.00 in   Overcast
2:56 PM 34.0 °F 23.8 °F 30.9 °F 89% 29.84 in 5.0 mi SSW 16.1 mph 25.3 mph N/A   Overcast
3:56 PM 34.0 °F 23.4 °F 30.9 °F 89% 29.83 in 6.0 mi SSW 17.3 mph 24.2 mph N/A   Overcast
4:33 PM 35.6 °F 25.9 °F 32.0 °F 87% 29.79 in 6.0 mi SSW 16.1 mph - N/A   Overcast
4:56 PM 35.1 °F 26.4 °F 32.0 °F 89% 29.84 in 7.0 mi SSW 12.7 mph - N/A   Overcast
5:30 PM 35.6 °F 28.0 °F 32.0 °F 87% 29.82 in 7.0 mi SSW 10.4 mph - N/A   Overcast
5:56 PM 35.1 °F 26.9 °F 32.0 °F 89% 29.85 in 7.0 mi South 11.5 mph - N/A   Mostly Cloudy
6:03 PM 35.6 °F 28.0 °F 32.0 °F 87% 29.82 in 7.0 mi SSW 10.4 mph - N/A   Overcast
6:56 PM 35.1 °F 27.9 °F 32.0 °F 89% 29.86 in 8.0 mi SSW 9.2 mph - 0.00 in Rain Light Rain
7:56 PM 36.0 °F 28.0 °F 33.1 °F 89% 29.86 in 8.0 mi SSW 11.5 mph - 0.00 in   Partly Cloudy
8:46 PM 35.6 °F 27.5 °F 33.8 °F 93% 29.85 in 8.0 mi West 11.5 mph - 0.00 in   Mostly Cloudy
8:56 PM 37.0 °F 28.9 °F 33.1 °F 86% 29.89 in 9.0 mi West 12.7 mph - 0.00 in   Mostly Cloudy
9:56 PM 36.0 °F 25.0 °F 28.9 °F 76% 29.91 in 10.0 mi West 20.7 mph 31.1 mph N/A   Overcast
10:56 PM 35.1 °F 25.2 °F 27.0 °F 72% 29.93 in 10.0 mi West 16.1 mph 31.1 mph N/A   Overcast
11:19 PM 33.8 °F 24.3 °F 26.6 °F 75% 29.90 in 10.0 mi West 13.8 mph 23.0 mph N/A   Mostly Cloudy
11:56 PM 35.1 °F 26.4 °F 26.1 °F 70% 29.94 in 10.0 mi West 12.7 mph - N/A   Mostly Cloudy